Location: Huberhof
(49.2050°N, 7.4980°E)
Time: 01:13:14
(UTC+00:00)

Cosmos 2263 Rocket - Pass Details

Date: 29 October 2020
Orbit: 822 x 850 km, 71.0° (Epoch: 26 November)

Event Time Altitude Azimuth Distance (km) Brightness Sun altitude
Rises 20:21:06 0° 322° (NW) 3,423 6.1 -40.1°
Reaches altitude 10° 20:24:00 10° 309° (NW) 2,484 5.3 -40.5°
Enters shadow 20:26:51 21° 282° (WNW) 1,824 4.4 -40.9°
